Regional Weather Roundup
Issued by NWS

Home | Current Version | Previous Version | Graphics & Text | Print | Product List | Glossary On
Versions: 1 2 3 4 5 6 7 8 9 10 11 12 13 14 15 16 17 18 19 20 21 22 23 24 25 26 27
000
ASUS45 KSLC 201210
RWRUT

UTAH REGIONAL WEATHER ROUNDUP
NATIONAL WEATHER SERVICE SALT LAKE CITY UT
600 AM MDT SUN AUG 20 2017

UTZ001>011-023>025-201300-

NORTHERN UTAH

CITY           SKY/WX    TMP DP  RH WIND       PRES   REMARKS
BRIGHAM CITY   PTCLDY    61  38  42 CALM      30.02S
HILL AFB       CLEAR     66  36  32 E16       30.04R
LOGAN          PTCLDY    57  44  62 CALM      30.05R
OGDEN          CLEAR     66  38  35 S8        30.01R
SALT LAKE CITY PTCLDY    71  42  35 E7        29.99S
TOOELE VALLEY  CLEAR     61  39  44 S10       30.02R
WENDOVER       MOCLDY    72  30  21 CALM      30.02R
HEBER CITY     PTCLDY    52  43  71 CALM      30.13R
WEST JORDAN    PTCLDY    64  46  50 S6        30.04R

$$

UTZ011>015-024>027-201300-

CENTRAL/NORTHEAST UTAH

CITY           SKY/WX    TMP DP  RH WIND       PRES   REMARKS
PROVO AIRPORT  PTCLDY    70  43  37 S5        30.05R
MOAB/CANYONLAN CLEAR     65  37  35 W6        30.02R
DELTA          CLEAR     64  32  29 S12       30.06R
PRICE          PTCLDY    61  37  41 CALM      30.13F
ROOSEVELT      CLOUDY    54  45  71 CALM      30.13S
VERNAL         CLEAR     55  43  63 W5        30.12R

$$

UTZ013>016-019>022-027-201300-

SOUTHERN UTAH

CITY           SKY/WX    TMP DP  RH WIND       PRES   REMARKS
BRYCE CANYON     N/A     58  44  60 N10       30.30S
CEDAR CITY     CLEAR     62  39  42 SE5       30.14S
MILFORD        CLEAR     57  38  48 S7        30.10R
ST GEORGE      LGT RAIN  73  46  38 CALM      29.96R
HANKSVILLE     PTCLDY    63  34  34 CALM      30.05S
BLANDING       CLEAR     64  35  33 S5        30.19R

$$

REGIONAL REPORTS     COLORADO/ARIZONA

CITY           SKY/WX    TMP DP  RH WIND       PRES   REMARKS
CRAIG, CO      CLOUDY    45  35  68 CALM      30.19S
GRAND JUNCTION CLEAR     65  39  38 SE14      30.07R
RIFLE, CO      CLEAR     52  37  56 CALM      30.17R
MONTROSE, CO   CLOUDY    57  39  51 SE9       30.17R
CORTEZ, CO     CLEAR     54  41  61 E5        30.14S
COLORADO CITY    N/A     55  45  67 E5        30.13S
PAGE, AZ       PTCLDY    76  38  25 CALM      30.02R
GRAND CANYON   PTCLDY    47  38  71 CALM      30.24S
KINGMAN, AZ    CLEAR     72  46  39 SE8       29.99F
FLAGSTAFF, AZ  MOCLDY    57  46  66 CALM      30.27S

$$

REGIONAL REPORTS    NEVADA/IDAHO/WYOMING

CITY           SKY/WX    TMP DP  RH WIND       PRES   REMARKS
LAS VEGAS, NV  PTCLDY    83  46  27 CALM      29.87R
ELY, NY        CLEAR     48  31  51 S14       30.16S
ELKO, NV       MOCLDY    54  34  46 CALM      30.09R
POCATELLO, ID  CLOUDY    62  33  33 SW8       30.08R
BURLEY, ID     CLEAR     55  38  52 SW8       30.05R
FORT BRIDGER,  SUNNY     59  34  38 W9        30.24S
EVANSTON, WY   CLOUDY    55  36  48 SE7       30.22S
ROCK SPRINGS,  CLOUDY    57  34  41 S5        30.20R

$$




USA.gov is the U.S. government's official web portal to all federal, state and local government web resources and services.